Weather History for Sioux Falls, SD

Change the Weather History Date:

Sunday, February 19, 2012

  Actual Average Record
Temperature  
Mean Temperature 34 °F 23 °F  
Max Temperature 44 °F 32 °F 65 °F (1996)
Min Temperature 23 °F 13 °F -24 °F (1959)
Degree Days  
Heating Degree Days 31 42  
Month to date heating degree days 733 855  
Since 1 July heating degree days 4624 5487  
Cooling Degree Days 0 0  
Month to date cooling degree days 0 0  
Year to date cooling degree days 0 0  
Moisture  
Dew Point 22 °F    
Average Humidity 60    
Maximum Humidity 75    
Minimum Humidity 45    
Precipitation  
Precipitation 0.00 in 0.02 in 1.62 in (1952)
Month to date precipitation 0.03 0.36  
Year to date precipitation 0.78 0.92  
Snow  
Snow 0.00 in 0.30 in 16.60 in (1952)
Month to date snowfall 0.4 4.6  
Since 1 July snowfall 9.1 29.2  
Snow Depth 0.00 in    
Sea Level Pressure  
Sea Level Pressure 30.02 in    
Wind  
Wind Speed 14 mph (SSE)    
Max Wind Speed 24 mph    
Max Gust Speed 31 mph    
Visibility 10 miles    
Events      
T = Trace of Precipitation, MM = Missing Value Source: NWS Daily Summary

Daily Weather History Graph

Daily Weather History Graph

Search for Another Location

Airport:

Trip Planner

Search our weather history database for the weather conditions in past years. The results will help you decide how hot, cold, wet, or windy it might be!

Date:

Astronomy

Feb. 19, 2012 Rise Set
Actual Time 7:20 AM CST 6:02 PM CST
Civil Twilight 6:51 AM CST 6:31 PM CST
Nautical Twilight 6:17 AM CST 7:04 PM CST
Astronomical Twilight 5:44 AM CST 7:37 PM CST
Moon 5:44 AM CST (2/19) 4:02 PM CST (2/19)
Length of Visible Light 11h 40m
Length of Day
10h 41m
Waning Crescent, 5% of the Moon is Illuminated
Feb 19
Waning Crescent
Feb 21
New
Feb 29
First Quarter
Mar 8
Full
Mar 14
Last Quarter

Hourly Weather History & Observations

Time (CST) Temp. Windchill Dew Point Humidity Pressure Visibility Wind Dir Wind Speed Gust Speed Precip Events Conditions
12:56 AM 27.0 °F 18.7 °F 18.0 °F 69% 30.11 in 10.0 mi South 8.1 mph - N/A   Clear
1:56 AM 25.0 °F 17.1 °F 17.1 °F 72% 30.10 in 10.0 mi South 6.9 mph - N/A   Clear
2:56 AM 25.0 °F 15.5 °F 17.1 °F 72% 30.09 in 10.0 mi South 9.2 mph - N/A   Clear
3:56 AM 26.1 °F 16.8 °F 17.1 °F 69% 30.08 in 10.0 mi South 9.2 mph - N/A   Clear
4:56 AM 26.1 °F 15.0 °F 17.1 °F 69% 30.07 in 10.0 mi South 12.7 mph - N/A   Clear
5:56 AM 24.1 °F 13.7 °F 17.1 °F 75% 30.08 in 10.0 mi SSE 10.4 mph 17.3 mph N/A   Clear
6:56 AM 24.1 °F 12.0 °F 17.1 °F 75% 30.07 in 10.0 mi South 13.8 mph - N/A   Clear
7:56 AM 25.0 °F 13.6 °F 18.0 °F 75% 30.07 in 10.0 mi South 12.7 mph - N/A   Clear
8:56 AM 28.9 °F 16.5 °F 19.9 °F 69% 30.05 in 10.0 mi South 18.4 mph - N/A   Clear
9:56 AM 33.1 °F 22.2 °F 21.9 °F 64% 30.05 in 10.0 mi South 17.3 mph 26.5 mph N/A   Clear
10:56 AM 37.9 °F 28.5 °F 23.0 °F 55% 30.04 in 10.0 mi South 17.3 mph 24.2 mph N/A   Clear
11:56 AM 39.0 °F 29.0 °F 23.0 °F 53% 30.02 in 10.0 mi South 20.7 mph 28.8 mph N/A   Clear
12:56 PM 41.0 °F 32.8 °F 24.1 °F 51% 30.00 in 10.0 mi South 16.1 mph 21.9 mph N/A   Clear
1:56 PM 44.1 °F 37.4 °F 26.1 °F 49% 29.97 in 10.0 mi South 13.8 mph 25.3 mph N/A   Clear
2:56 PM 44.1 °F 35.7 °F 25.0 °F 47% 29.96 in 10.0 mi SSE 20.7 mph 29.9 mph N/A   Clear
3:56 PM 43.0 °F 33.8 °F 24.1 °F 47% 29.95 in 10.0 mi SSE 23.0 mph 28.8 mph N/A   Clear
4:56 PM 41.0 °F 32.8 °F 23.0 °F 49% 29.95 in 10.0 mi SSE 16.1 mph 27.6 mph N/A   Clear
5:56 PM 37.9 °F 29.6 °F 23.0 °F 55% 29.96 in 10.0 mi SSE 13.8 mph 23.0 mph N/A   Clear
6:56 PM 35.1 °F 26.4 °F 25.0 °F 67% 29.98 in 10.0 mi SSE 12.7 mph 24.2 mph N/A   Clear
7:56 PM 35.1 °F 24.1 °F 24.1 °F 64% 29.99 in 10.0 mi South 19.6 mph 27.6 mph N/A   Scattered Clouds
8:56 PM 34.0 °F 25.5 °F 25.0 °F 70% 29.98 in 10.0 mi SSE 11.5 mph - N/A   Scattered Clouds
9:56 PM 34.0 °F 26.0 °F 26.1 °F 73% 29.97 in 10.0 mi SSE 10.4 mph - N/A   Mostly Cloudy
10:56 PM 35.1 °F 26.9 °F 26.1 °F 70% 29.96 in 10.0 mi SSE 11.5 mph - N/A   Overcast
11:56 PM 36.0 °F 26.0 °F 25.0 °F 64% 29.96 in 10.0 mi SSE 17.3 mph 24.2 mph N/A   Overcast